GW0064 Weather Reports


Display with metric or nautical units.
time (UTC)temp
F
wind
direction
speed
MPH
gust
MPH
rain 1hr
in
rain 24hr
in
rain mn
in
humidity
%
barometer
mb
20260904144003 0 265 6.0 10.0 0.00 0.00 0.00 67 1016.4
20260904143502 0 257 6.0 12.0 0.00 0.00 0.00 1016.4
20260904143003 0 272 5.0 12.0 0.00 0.00 0.00 1016.3
20260904142501 0 271 6.0 10.0 0.00 0.00 0.00 1016.3
20260904142003 0 282 5.0 10.0 0.00 0.00 0.00 100 1016.3
20260904141501 0 262 5.0 8.0 0.00 0.00 0.00 100 1016.3
20260904141003 0 272 6.0 10.0 0.00 0.00 0.00 1016.3
20260904140004 0 290 5.0 8.0 0.00 0.00 0.00 1016.2
20260904135502 0 229 5.0 8.0 0.00 0.00 0.00 1016.2
20260904134501 0 278 4.0 7.0 0.00 0.00 0.00 1016.2
20260904133501 0 266 4.0 7.0 0.00 0.00 0.00 1016.1
20260904132001 0 222 5.0 7.0 0.00 0.00 0.00 1016.0
20260904131501 0 256 5.0 6.0 0.00 0.00 0.00 1016.0
20260904131003 0 231 3.0 5.0 0.00 0.00 0.00 1016.1
20260904130504 0 273 2.0 4.0 0.00 0.00 0.00 1016.1
20260904130004 0 236 1.0 4.0 0.00 0.00 0.00 1016.1
20260904125501 79 221 3.0 4.0 0.00 0.00 0.00 100 1016.2
20260904125001 0 224 2.0 4.0 0.00 0.00 0.00 1016.1
20260904124500 0 245 3.0 4.0 0.00 0.00 0.00 1016.1
20260904124000 0 264 2.0 3.0 0.00 0.00 0.00 1016.1
20260904123501 0 257 1.0 3.0 0.00 0.00 0.00 1016.0
20260904123001 0 271 1.0 4.0 0.00 0.00 0.00 1016.1
20260904122500 0 237 2.0 4.0 0.00 0.00 0.00 1016.1
20260904122002 0 219 2.0 3.0 0.00 0.00 0.00 1015.9
20260904121500 0 222 1.0 3.0 0.00 0.00 0.00 1015.9
20260904120500 0 242 1.0 2.0 0.00 0.00 0.00 1015.9
20260904120006 0 236 1.0 3.0 0.00 0.00 0.00 1015.9
20260904114501 0 222 1.0 3.0 0.00 0.00 0.00 1015.6
20260904114001 0 216 1.0 4.0 0.00 0.00 0.00 1015.5
20260904113500 0 235 2.0 4.0 0.00 0.00 0.00 1015.3
20260904113001 0 230 2.0 4.0 0.00 0.00 0.00 1015.0
20260904112002 0 229 1.0 4.0 0.00 0.00 0.00 1015.1
20260904111500 0 238 2.0 4.0 0.00 0.00 0.00 1015.0
20260904111002 0 234 1.0 4.0 0.00 0.00 0.00 1 1014.9
20260904110500 0 231 2.0 4.0 0.00 0.00 0.00 1014.9
20260904105501 0 220 2.0 4.0 0.00 0.00 0.00 1014.9
20260904105002 0 207 1.0 3.0 0.00 0.00 0.00 1014.8
20260904104500 0 209 0.0 3.0 0.00 0.00 0.00 1014.9
20260904104003 0 208 1.0 3.0 0.00 0.00 0.00 1014.9
20260904102002 0 219 0.0 0.0 0.00 0.00 0.00 1014.9
20260904101000 0 159 0.0 0.0 0.00 0.00 0.00 1014.9
20260904100002 0 165 0.0 0.0 0.00 0.00 0.00 1014.8
20260904095501 0 162 0.0 0.0 0.00 0.00 0.00 100 1014.9
20260904095000 76 165 0.0 0.0 0.00 0.00 0.00 100 1014.9
20260904094500 0 193 0.0 1.0 0.00 0.00 0.00 81 1014.8
20260904094002 0 203 0.0 1.0 0.00 0.00 0.00 1014.8
20260904093501 0 203 0.0 2.0 0.00 0.00 0.00 80 1014.8
20260904093001 77 210 0.0 3.0 0.00 0.00 0.00 79 1014.7
20260904092502 77 162 1.0 4.0 0.00 0.00 0.00 79 1014.7
20260904092002 77 199 2.0 4.0 0.00 0.00 0.00 100 1014.7
20260904091500 77 224 1.0 3.0 0.00 0.00 0.00 78 1014.6
20260904091001 0 206 2.0 3.0 0.00 0.00 0.00 1014.6
20260904090500 0 199 1.0 3.0 0.00 0.00 0.00 1014.6
20260904085503 0 220 0.0 0.0 0.00 0.00 0.00 1014.6
20260904085001 0 219 0.0 0.0 0.00 0.00 0.00 1014.6
20260904084500 0 212 0.0 0.0 0.00 0.00 0.00 1014.5
20260904084000 78 229 0.0 0.0 0.00 0.00 0.00 100 1014.5
20260904083501 78 229 0.0 0.0 0.00 0.00 0.00 1014.4
20260904083000 78 209 0.0 0.0 0.00 0.00 0.00 1014.5
20260904082500 0 222 0.0 2.0 0.00 0.00 0.00 73 1014.5
20260904082000 78 168 0.0 3.0 0.00 0.00 0.00 72 1014.5
20260904081500 0 216 2.0 3.0 0.00 0.00 0.00 1014.5
20260904081001 0 232 1.0 2.0 0.00 0.00 0.00 1014.6
20260904080004 0 230 2.0 4.0 0.00 0.00 0.00 1014.6
20260904075500 0 218 1.0 5.0 0.00 0.00 0.00 1014.7
20260904075003 78 179 3.0 9.0 0.00 0.00 0.00 74 1014.8
20260904074500 78 190 4.0 9.0 0.00 0.00 0.00 77 1014.9
20260904073501 77 158 2.0 6.0 0.00 0.00 0.00 1015.2
20260904073001 0 161 3.0 6.0 0.00 0.00 0.00 1015.3
20260904072501 76 149 1.0 3.0 0.00 0.00 0.00 87 1015.4
20260904072002 76 152 0.0 0.0 0.00 0.00 0.00 87 1015.3
20260904071502 0 142 0.0 0.0 0.00 0.00 0.00 1015.3
20260904071000 0 142 0.0 0.0 0.00 0.00 0.00 1015.3
20260904070500 0 142 0.0 0.0 0.00 0.00 0.00 1015.3
20260904070004 76 142 0.0 0.0 0.00 0.00 0.00 1015.3
20260904065501 0 143 0.0 0.0 0.00 0.00 0.00 1015.4
20260904064500 76 143 0.0 1.0 0.00 0.00 0.00 86 1015.6
20260904063500 0 142 0.0 1.0 0.00 0.00 0.00 1015.6
20260904063000 0 142 1.0 2.0 0.00 0.00 0.00 1 1015.6
20260904062502 76 146 1.0 2.0 0.00 0.00 0.00 1015.6
20260904062001 0 137 1.0 2.0 0.00 0.00 0.00 1015.7
20260904061500 0 136 1.0 1.0 0.00 0.00 0.00 1015.7
20260904060500 0 136 0.0 0.0 0.00 0.00 0.00 1015.8
20260904054501 0 135 0.0 0.0 0.00 0.00 0.00 1015.9
20260904054000 0 135 0.0 0.0 0.00 0.00 0.00 1015.9
20260904053500 77 135 0.0 0.0 0.00 0.00 0.00 1015.8
20260904053000 0 135 0.0 0.0 0.00 0.00 0.00 1015.9
20260904052504 0 135 0.0 3.0 0.00 0.00 0.00 1015.9
20260904052000 78 136 1.0 4.0 0.00 0.00 0.00 100 1015.9
20260904051500 78 140 1.0 4.0 0.00 0.00 0.00 83 1015.9
20260904051002 78 136 1.0 3.0 0.00 0.00 0.00 100 1015.8
20260904050501 78 138 2.0 4.0 0.00 0.00 0.00 83 1015.9
20260904050005 78 153 2.0 4.0 0.00 0.00 0.00 83 1015.8
20260904045503 78 136 0.0 2.0 0.00 0.00 0.00 1015.8
20260904045001 78 131 0.0 3.0 0.00 0.00 0.00 83 1015.8
20260904044002 78 131 2.0 3.0 0.00 0.00 0.00 83 1015.7
20260904043503 78 133 1.0 3.0 0.00 0.00 0.00 83 1015.8
20260904043001 78 134 1.0 3.0 0.00 0.00 0.00 83 1015.7
20260904042502 78 142 2.0 3.0 0.00 0.00 0.00 83 1015.8
20260904042002 78 139 2.0 3.0 0.00 0.00 0.00 82 1015.7
20260904041003 78 135 0.0 5.0 0.00 0.00 0.00 81 1015.7
20260904040503 78 129 3.0 5.0 0.00 0.00 0.00 81 1015.6
20260904040008 78 136 2.0 5.0 0.00 0.00 0.00 81 1015.5
20260904035502 78 137 3.0 5.0 0.00 0.00 0.00 81 1015.6
20260904035002 78 127 3.0 6.0 0.00 0.00 0.00 80 1015.6
20260904034502 78 134 4.0 6.0 0.00 0.00 0.00 80 1015.6
20260904034003 78 135 4.0 7.0 0.00 0.00 0.00 80 1015.5
20260904033003 79 131 3.0 7.0 0.00 0.00 0.00 79 1015.6
20260904032502 79 101 3.0 7.0 0.00 0.00 0.00 79 1015.5
20260904032004 79 120 4.0 6.0 0.00 0.00 0.00 79 1015.6
20260904031502 80 105 2.0 3.0 0.00 0.00 0.00 80 1015.5
20260904031002 80 108 2.0 3.0 0.00 0.00 0.00 80 1015.6
20260904030503 80 99 0.0 2.0 0.00 0.00 0.00 80 1015.7
20260904030005 80 100 0.0 2.0 0.00 0.00 0.00 80 1015.7
20260904025502 80 94 1.0 1.0 0.00 0.00 0.00 79 1015.7
20260904025003 80 94 0.0 1.0 0.00 0.00 0.00 79 1015.8
20260904024003 81 91 0.0 1.0 0.00 0.00 0.00 78 1015.8
20260904023503 81 94 0.0 1.0 0.00 0.00 0.00 78 1015.8
20260904023002 81 94 0.0 4.0 0.00 0.00 0.00 77 1015.9
20260904022505 81 96 1.0 4.0 0.00 0.00 0.00 77 1015.8
20260904022002 81 74 1.0 3.0 0.00 0.00 0.00 77 1015.7
20260904021002 80 78 1.0 2.0 0.00 0.00 0.00 78 1015.6
20260904020007 81 75 0.0 1.0 0.00 0.00 0.00 76 1015.6
20260904015003 81 75 0.0 2.0 0.00 0.00 0.00 76 1015.6
20260904014502 81 76 1.0 3.0 0.00 0.00 0.00 75 1015.6
20260904014003 81 75 1.0 3.0 0.00 0.00 0.00 75 1015.6
20260904013502 81 66 0.0 2.0 0.00 0.00 0.00 74 1015.6
20260904013003 81 63 1.0 2.0 0.00 0.00 0.00 73 1015.6
20260904012502 82 63 0.0 2.0 0.00 0.00 0.00 73 1015.5
20260904012002 82 64 0.0 1.0 0.00 0.00 0.00 72 1015.4
20260904011502 82 64 0.0 1.0 0.00 0.00 0.00 71 1015.5
20260904011003 82 63 0.0 1.0 0.00 0.00 0.00 71 1015.5
20260904010006 82 63 0.0 1.0 0.00 0.00 0.00 69 1015.4
20260904005504 83 63 0.0 2.0 0.00 0.00 0.00 69 1015.3
20260904005003 83 59 1.0 3.0 0.00 0.00 0.00 68 1015.3
20260904004003 83 44 1.0 4.0 0.00 0.00 0.00 67 1015.3
20260904003502 84 43 3.0 5.0 0.00 0.00 0.00 66 1015.4
20260904003003 84 49 3.0 5.0 0.00 0.00 0.00 67 1015.3
20260904002502 85 37 1.0 7.0 0.00 0.00 0.00 69 1015.3
20260904001502 86 34 3.0 6.0 0.00 0.00 0.00 69 1015.1
20260904000503 87 25 4.0 6.0 0.00 0.00 0.00 68 1015.0
20260904000007 88 279 1.0 4.0 0.00 0.00 0.00 65 1014.8
20260903235502 89 281 1.0 3.0 0.00 0.00 0.00 63 1014.7
20260903235003 89 255 1.0 4.0 0.00 0.00 0.00 63 1014.7
20260903234002 90 239 2.0 4.0 0.00 0.00 0.00 61 1014.7
20260903233502 90 237 2.0 6.0 0.00 0.00 0.00 61 1014.7
20260903233002 90 221 2.0 6.0 0.00 0.00 0.00 60 1014.7
20260903232503 90 268 3.0 7.0 0.00 0.00 0.00 60 1014.7
20260903232002 91 240 4.0 7.0 0.00 0.00 0.00 60 1014.6
20260903231502 91 243 3.0 7.0 0.00 0.00 0.00 60 1014.6
20260903230503 91 257 3.0 7.0 0.00 0.00 0.00 59 1014.5
20260903230005 91 273 3.0 7.0 0.00 0.00 0.00 58 1014.5
20260903225504 92 247 4.0 7.0 0.00 0.00 0.00 58 1014.5
20260903225002 92 249 4.0 7.0 0.00 0.00 0.00 57 1014.4
20260903224502 92 245 3.0 8.0 0.00 0.00 0.00 57 1014.2
20260903224002 92 243 4.0 8.0 0.00 0.00 0.00 56 1014.2
20260903223503 92 262 5.0 10.0 0.00 0.00 0.00 56 1014.1
20260903223002 92 216 6.0 10.0 0.00 0.00 0.00 57 1014.1
20260903222502 92 248 6.0 12.0 0.00 0.00 0.00 55 1014.1
20260903222002 92 245 7.0 12.0 0.00 0.00 0.00 55 1014.1
20260903221503 92 237 7.0 12.0 0.00 0.00 0.00 55 1014.2
20260903221002 93 221 7.0 12.0 0.00 0.00 0.00 55 1014.3
20260903220006 93 270 6.0 10.0 0.00 0.00 0.00 54 1014.2
20260903215503 93 263 7.0 10.0 0.00 0.00 0.00 54 1014.2
20260903215002 93 237 7.0 10.0 0.00 0.00 0.00 53 1014.3
20260903214502 93 252 6.0 11.0 0.00 0.00 0.00 55 1014.4
20260903214005 93 266 5.0 13.0 0.00 0.00 0.00 54 1014.3
20260903213002 93 251 5.0 12.0 0.00 0.00 0.00 56 1014.4
20260903212505 93 264 5.0 9.0 0.00 0.00 0.00 57 1014.4
20260903212002 93 266 6.0 12.0 0.00 0.00 0.00 55 1014.5
20260903211502 93 263 6.0 12.0 0.00 0.00 0.00 55 1014.4
20260903211002 93 269 7.0 12.0 0.00 0.00 0.00 55 1014.3
20260903210503 93 279 7.0 11.0 0.00 0.00 0.00 55 1014.3
20260903210006 93 285 7.0 15.0 0.00 0.00 0.00 53 1014.2
20260903205502 93 275 10.0 15.0 0.00 0.00 0.00 53 1014.3
20260903205002 93 252 7.0 13.0 0.00 0.00 0.00 54 1014.3
20260903204502 93 248 9.0 13.0 0.00 0.00 0.00 54 1014.3
20260903204006 93 237 7.0 12.0 0.00 0.00 0.00 55 1014.3
20260903203502 93 256 8.0 12.0 0.00 0.00 0.00 55 1014.2
20260903203003 93 247 8.0 15.0 0.00 0.00 0.00 54 1014.3
20260903202501 93 224 9.0 15.0 0.00 0.00 0.00 53 1014.2
20260903202003 93 239 9.0 15.0 0.00 0.00 0.00 52 1014.3
20260903201503 93 257 8.0 15.0 0.00 0.00 0.00 53 1014.3
20260903201001 93 257 7.0 13.0 0.00 0.00 0.00 54 1014.4
20260903200504 93 271 8.0 12.0 0.00 0.00 0.00 54 1014.4
20260903195502 93 255 6.0 11.0 0.00 0.00 0.00 53 1014.7
20260903195001 93 271 7.0 14.0 0.00 0.00 0.00 53 1014.7
20260903194502 94 239 8.0 14.0 0.00 0.00 0.00 53 1014.8
20260903193002 93 269 7.0 14.0 0.00 0.00 0.00 52 1015.2
20260903192505 93 226 7.0 14.0 0.00 0.00 0.00 52 1015.3
20260903192001 93 202 7.0 14.0 0.00 0.00 0.00 52 1015.4
20260903191503 93 256 8.0 13.0 0.00 0.00 0.00 51 1015.4
20260903191002 93 245 7.0 15.0 0.00 0.00 0.00 53 1015.5
20260903190501 93 261 6.0 12.0 0.00 0.00 0.00 53 1015.6
20260903190005 93 257 7.0 14.0 0.00 0.00 0.00 53 1015.6
20260903185503 93 240 9.0 14.0 0.00 0.00 0.00 52 1015.6
20260903185003 93 244 7.0 12.0 0.00 0.00 0.00 50 1015.6
20260903184002 93 263 8.0 12.0 0.00 0.00 0.00 51 1015.7
20260903183502 94 238 7.0 12.0 0.00 0.00 0.00 52 1015.7
20260903183003 93 258 5.0 12.0 0.00 0.00 0.00 51 1015.6
20260903182501 93 241 6.0 12.0 0.00 0.00 0.00 51 1015.6
20260903182002 93 238 6.0 12.0 0.00 0.00 0.00 52 1015.6
20260903181504 93 250 6.0 11.0 0.00 0.00 0.00 52 1015.7
20260903181003 93 242 6.0 12.0 0.00 0.00 0.00 52 1015.7
20260903180502 93 241 8.0 12.0 0.00 0.00 0.00 51 1015.7
20260903180005 93 236 8.0 12.0 0.00 0.00 0.00 52 1015.7
20260903175502 93 234 4.0 11.0 0.00 0.00 0.00 54 1015.7
20260903175005 92 236 7.0 13.0 0.00 0.00 0.00 53 1015.8
20260903174503 92 253 8.0 13.0 0.00 0.00 0.00 54 1015.8
20260903174002 92 266 5.0 12.0 0.00 0.00 0.00 54 1015.8
20260903173502 92 260 7.0 12.0 0.00 0.00 0.00 55 1015.8
20260903173002 92 242 6.0 13.0 0.00 0.00 0.00 54 1015.9
20260903172505 92 250 6.0 13.0 0.00 0.00 0.00 54 1015.9
20260903172002 92 250 7.0 13.0 0.00 0.00 0.00 54 1016.0
20260903171501 92 236 6.0 14.0 0.00 0.00 0.00 54 1016.0
20260903171002 92 230 10.0 14.0 0.00 0.00 0.00 53 1016.0
20260903170506 92 247 6.0 12.0 0.00 0.00 0.00 54 1016.1
20260903170004 91 227 6.0 13.0 0.00 0.00 0.00 54 1016.1
20260903165501 92 247 8.0 13.0 0.00 0.00 0.00 53 1016.2
20260903165002 91 269 6.0 10.0 0.00 0.00 0.00 56 1016.2
20260903164501 91 162 7.0 14.0 0.00 0.00 0.00 57 1016.2
20260903164001 91 237 7.0 14.0 0.00 0.00 0.00 56 1016.2
20260903163500 90 274 5.0 12.0 0.00 0.00 0.00 56 1016.3
20260903163002 90 251 8.0 12.0 0.00 0.00 0.00 55 1016.4
20260903162501 90 252 8.0 11.0 0.00 0.00 0.00 57 1016.4
20260903162001 90 262 6.0 11.0 0.00 0.00 0.00 59 1016.5
20260903161500 90 241 7.0 11.0 0.00 0.00 0.00 60 1016.5
20260903161003 90 224 8.0 11.0 0.00 0.00 0.00 60 1016.6
20260903160502 90 233 6.0 10.0 0.00 0.00 0.00 59 1016.6
20260903160004 89 229 5.0 11.0 0.00 0.00 0.00 61 1016.6
20260903155502 89 268 7.0 13.0 0.00 0.00 0.00 63 1016.6
20260903155001 89 224 8.0 13.0 0.00 0.00 0.00 61 1016.7
20260903154500 89 217 8.0 13.0 0.00 0.00 0.00 61 1016.7
20260903154000 89 219 8.0 12.0 0.00 0.00 0.00 61 1016.7
20260903153000 89 245 7.0 10.0 0.00 0.00 0.00 62 1016.6
20260903152500 88 221 7.0 10.0 0.00 0.00 0.00 63 1016.7
20260903152002 88 221 7.0 10.0 0.00 0.00 0.00 63 1016.6
20260903151502 88 217 5.0 10.0 0.00 0.00 0.00 65 1016.6
20260903151001 88 229 7.0 10.0 0.00 0.00 0.00 65 1016.6
20260903150008 87 208 5.0 10.0 0.00 0.00 0.00 65 1016.6
20260903145501 87 203 5.0 10.0 0.00 0.00 0.00 65 1016.6
20260903145002 87 225 5.0 9.0 0.00 0.00 0.00 66 1016.6
20260903144503 87 231 4.0 10.0 0.00 0.00 0.00 68 1016.5